FW1245 Weather Reports


time (UTC)temp
C
wind
direction
speed
KPH
gust
KPH
rain 1hr
cm
rain 24hr
cm
rain mn
cm
humidity
%
barometer
mb
20260506212016 7 68 3.2 6.4 0.08 2.21 2.21 98 1005.4
20260506211516 7 68 1.6 6.4 0.08 2.21 2.21 98 1005.4
20260506211116 7 68 1.6 3.2 0.08 2.21 2.21 98 1005.4
20260506210516 7 68 1.6 3.2 0.08 2.21 2.21 98 1005.3
20260506210015 7 68 1.6 4.8 0.08 2.24 2.21 98 1005.3
20260506205515 7 0.0 1.6 0.05 2.21 2.18 98 1005.4
20260506205016 7 0.0 1.6 0.05 2.18 2.16 98 1005.4
20260506204536 7 0.0 3.2 0.05 2.18 2.16 98 1005.5
20260506204015 7 68 1.6 4.8 0.05 2.16 2.13 98 1005.4
20260506203515 7 0.0 1.6 0.08 2.16 2.13 98 1005.4
20260506203016 7 0.0 4.8 0.10 2.16 2.13 98 1005.5
20260506202515 7 0.0 1.6 0.15 2.18 2.13 98 1005.5
20260506202016 7 0.0 1.6 0.18 2.21 2.13 98 1005.5
20260506201515 7 0.0 4.8 0.20 2.41 2.13 98 1005.5
20260506201016 7 0.0 3.2 0.23 2.79 2.13 98 1005.6
20260506200515 7 0.0 1.6 0.25 2.82 2.13 98 1005.6
20260506200015 7 68 1.6 4.8 0.28 2.82 2.13 98 1005.5
20260506195515 7 0.0 3.2 0.36 2.82 2.13 98 1005.6
20260506195015 7 68 3.2 6.4 0.36 2.79 2.11 98 1005.7
20260506194536 7 45 4.8 8.0 0.38 2.79 2.11 98 1005.7
20260506194015 7 45 3.2 8.0 0.38 2.77 2.08 98 1005.4
20260506193556 7 90 1.6 4.8 0.38 2.74 2.06 97 1005.5
20260506193015 8 90 4.8 11.3 0.38 2.72 2.03 97 1005.3
20260506192515 8 68 4.8 9.7 0.33 2.67 1.98 97 1005.3
20260506192016 8 68 4.8 8.0 0.33 2.64 1.96 97 1005.3
20260506191516 8 68 3.2 14.5 0.33 2.62 1.93 97 1005.3
20260506191015 9 90 1.6 8.0 0.30 2.59 1.91 98 1005.1
20260506190518 9 90 1.6 4.8 0.28 2.57 1.88 97 1005.2
20260506190018 9 113 1.6 4.8 0.28 2.54 1.85 97 1005.3
20260506185517 9 113 3.2 6.4 0.20 2.46 1.78 97 1005.3
20260506185017 9 113 6.4 11.3 0.18 2.44 1.75 97 1005.2
20260506184517 10 0 1.6 6.4 0.18 2.41 1.73 96 1005.4
20260506184017 10 0 3.2 8.0 0.18 2.39 1.70 96 1005.4
20260506183517 11 0 3.2 11.3 0.18 2.36 1.68 97 1005.2
20260506183017 11 68 1.6 8.0 0.18 2.34 1.65 97 1005.3
20260506182517 11 68 4.8 12.9 0.20 2.34 1.65 95 1005.2
20260506182017 12 0 1.6 6.4 0.18 2.31 1.63 95 1005.4
20260506181517 12 293 1.6 3.2 0.20 2.29 1.60 96 1005.5
20260506181018 13 293 1.6 9.7 0.23 2.29 1.60 98 1005.5
20260506180517 13 293 3.2 11.3 0.30 2.29 1.60 98 1005.4
20260506180017 13 45 4.8 12.9 0.33 2.26 1.57 99 1005.4
20260506175517 13 45 3.2 9.7 0.38 2.26 1.57 98 1005.5
20260506175017 13 45 3.2 11.3 0.43 2.26 1.57 99 1005.5
20260506174517 13 45 1.6 14.5 0.48 2.24 1.55 99 1005.4
20260506174017 13 338 1.6 12.9 0.53 2.21 1.52 99 1005.5
20260506173517 13 270 3.2 14.5 0.53 2.18 1.50 98 1005.6
20260506173017 13 0.0 3.2 0.53 2.16 1.47 98 1005.7
20260506172537 13 45 3.2 8.0 0.51 2.13 1.45 98 1005.8
20260506172037 13 45 4.8 14.5 0.53 2.13 1.45 97 1006.0
20260506171517 13 0 1.6 6.4 0.53 2.08 1.40 98 1006.4
20260506171017 13 315 1.6 9.7 0.53 2.06 1.37 98 1006.2
20260506170517 13 225 3.2 14.5 0.48 1.98 1.30 98 1006.3
20260506170017 13 90 1.6 24.1 0.46 1.93 1.24 98 1006.4
20260506165517 13 225 1.6 24.1 0.43 1.88 1.19 98 1006.6
20260506165015 13 0.0 3.2 0.43 1.83 1.14 98 1006.6
20260506164517 13 23 1.6 4.8 0.38 1.75 1.07 99 1006.5
20260506164017 13 23 3.2 19.3 0.33 1.68 0.99 98 1006.5
20260506163517 13 338 3.2 19.3 0.33 1.65 0.97 98 1006.6
20260506163017 13 45 1.6 4.8 0.33 1.63 0.94 99 1006.7
20260506162618 13 0.0 3.2 0.38 1.63 0.94 99 1006.6
20260506162057 13 0.0 3.2 0.38 1.60 0.91 99 1006.5
20260506161517 13 0.0 3.2 0.36 1.55 0.86 99 1006.6
20260506161017 13 45 1.6 4.8 0.36 1.52 0.84 99 1006.7
20260506160517 13 45 1.6 6.4 0.33 1.50 0.81 99 1006.9
20260506160038 13 0.0 0.0 0.33 1.47 0.79 99 1006.8
20260506155517 13 0.0 0.0 0.33 1.45 0.76 99 1007.0
20260506155017 13 0.0 0.0 0.30 1.40 0.71 99 1007.0
20260506154517 13 0.0 0.0 0.30 1.37 0.69 98 1007.0
20260506154017 13 0.0 1.6 0.30 1.35 0.66 99 1006.9
20260506153517 13 45 1.6 4.8 0.30 1.32 0.64 98 1007.1
20260506153017 13 45 1.6 4.8 0.28 1.30 0.61 99 1007.1
20260506152517 13 45 3.2 8.0 0.25 1.24 0.56 99 1007.1
20260506152017 13 0.0 3.2 0.25 1.22 0.53 99 1007.3
20260506151517 13 0.0 3.2 0.25 1.19 0.51 98 1007.5
20260506151017 13 248 1.6 6.4 0.23 1.17 0.48 99 1007.6
20260506150517 13 0.0 3.2 0.25 1.17 0.48 99 1007.6
20260506150037 13 0.0 4.8 0.23 1.14 0.46 98 1007.7
20260506145517 13 0.0 0.0 0.23 1.12 0.43 98 1007.7
20260506145017 13 0.0 0.0 0.23 1.09 0.41 99 1007.8
20260506144517 13 0.0 0.0 0.23 1.07 0.38 99 1007.9
20260506144017 13 0.0 0.0 0.20 1.04 0.36 99 1008.0
20260506143517 13 0.0 0.0 0.18 1.02 0.33 99 1007.9
20260506143037 13 0.0 0.0 0.20 1.02 0.33 99 1007.9
20260506142517 13 0.0 0.0 0.18 0.99 0.30 99 1007.9
20260506142017 13 0.0 1.6 0.18 0.97 0.28 99 1008.1
20260506141517 13 225 3.2 11.3 0.15 0.94 0.25 99 1008.1
20260506141017 13 0.0 1.6 0.15 0.94 0.25 99 1007.9
20260506140517 13 293 1.6 6.4 0.13 0.91 0.23 99 1008.0
20260506140018 13 0.0 1.6 0.15 0.91 0.23 99 1007.9
20260506135517 13 315 3.2 8.0 0.13 0.89 0.20 99 1007.9
20260506135017 13 0.0 0.0 0.10 0.86 0.18 100 1007.9
20260506134517 13 0.0 1.6 0.08 0.84 0.15 100 1007.7
20260506134017 13 0.0 3.2 0.10 0.84 0.15 100 1007.8
20260506133517 13 0 1.6 3.2 0.10 0.84 0.15 100 1007.8
20260506133017 13 0.0 3.2 0.08 0.81 0.13 100 1007.7
20260506132517 13 0.0 3.2 0.08 0.81 0.13 100 1007.6
20260506132017 13 0.0 1.6 0.05 0.79 0.10 100 1007.7
20260506131537 13 0 1.6 4.8 0.05 0.79 0.10 100 1007.6
20260506131017 13 23 1.6 3.2 0.05 0.79 0.10 100 1007.7
20260506130537 13 45 1.6 4.8 0.05 0.79 0.10 100 1007.7
20260506130017 13 45 1.6 4.8 0.03 0.76 0.08 100 1007.9
20260506125517 13 0.0 0.0 0.03 0.76 0.08 100 1007.9
20260506125037 13 0.0 1.6 0.03 0.76 0.08 100 1007.9
20260506124517 13 0.0 3.2 0.03 0.76 0.08 100 1008.1
20260506124017 13 0.0 6.4 0.00 0.74 0.05 100 1008.2
20260506123517 13 0.0 6.4 0.00 0.74 0.05 100 1008.1
20260506123037 13 0.0 4.8 0.00 0.74 0.05 100 1008.2
20260506122517 12 0.0 1.6 0.00 0.74 0.05 100 1008.1
20260506122017 12 0.0 3.2 0.00 0.74 0.05 100 1008.1
20260506121517 12 0.0 0.0 0.00 0.74 0.05 100 1008.0
20260506121017 12 0.0 1.6 0.00 0.74 0.05 100 1007.9
20260506120537 12 0.0 1.6 0.00 0.74 0.05 100 1007.6
20260506120017 12 135 1.6 4.8 0.00 0.74 0.05 100 1007.7
20260506115517 12 0.0 1.6 0.00 0.74 0.05 100 1007.9
20260506115057 12 0.0 1.6 0.00 0.74 0.05 100 1007.8
20260506114517 12 0.0 3.2 0.00 0.74 0.05 100 1007.7
20260506114037 12 0.0 3.2 0.00 0.74 0.05 100 1007.9
20260506113537 12 0.0 3.2 0.00 0.74 0.05 100 1008.0
20260506113017 12 0.0 3.2 0.00 0.74 0.05 100 1007.9
20260506112516 12 0.0 1.6 0.00 0.74 0.05 100 1007.9
20260506112017 11 0.0 1.6 0.00 0.74 0.05 100 1008.0
20260506111517 11 0.0 0.0 0.00 0.74 0.05 100 1008.1
20260506111017 11 0.0 3.2 0.00 0.74 0.05 100 1008.0
20260506110517 11 0.0 3.2 0.00 0.74 0.05 100 1008.1
20260506110016 11 0.0 0.0 0.00 0.74 0.05 100 1007.9
20260506105517 11 0.0 0.0 0.00 0.74 0.05 100 1007.8
20260506105016 11 0.0 0.0 0.00 0.74 0.05 99 1007.7
20260506104516 11 0.0 0.0 0.00 0.74 0.05 100 1007.6
20260506104037 11 0.0 1.6 0.00 0.74 0.05 100 1007.8
20260506103516 11 0.0 1.6 0.00 0.74 0.05 100 1007.8
20260506103017 11 0.0 0.0 0.00 0.74 0.05 99 1007.8
20260506102517 11 0.0 0.0 0.00 0.74 0.05 99 1007.5
20260506102016 11 0.0 0.0 0.00 0.74 0.05 99 1007.8
20260506101516 11 0.0 0.0 0.00 0.74 0.05 99 1007.8
20260506101017 11 0.0 0.0 0.00 0.74 0.05 99 1007.8
20260506100516 11 0.0 0.0 0.00 0.74 0.05 99 1007.7
20260506100017 11 135 1.6 4.8 0.00 0.74 0.05 99 1007.6
20260506095517 11 0.0 1.6 0.00 0.74 0.05 99 1007.8
20260506095016 11 135 1.6 3.2 0.00 0.74 0.05 99 1007.8
20260506094516 10 0.0 0.0 0.00 0.74 0.05 99 1007.7
20260506094036 10 0.0 1.6 0.00 0.74 0.05 99 1007.6
20260506093517 10 135 3.2 4.8 0.00 0.74 0.05 99 1007.6
20260506093057 10 0.0 3.2 0.00 0.74 0.05 99 1007.9
20260506092517 10 0.0 0.0 0.00 0.74 0.05 99 1007.7
20260506092016 10 0.0 0.0 0.00 0.74 0.05 99 1007.8
20260506091516 10 0.0 0.0 0.00 0.74 0.05 99 1007.7
20260506091016 10 0.0 0.0 0.00 0.74 0.05 99 1007.7
20260506090516 10 135 1.6 4.8 0.00 0.74 0.05 99 1007.9
20260506090016 10 0.0 3.2 0.00 0.74 0.05 98 1007.8
20260506085516 10 0.0 0.0 0.00 0.74 0.05 98 1008.0
20260506085016 10 0.0 1.6 0.00 0.74 0.05 98 1008.1
20260506084516 10 0.0 3.2 0.00 0.74 0.05 98 1008.2
20260506084016 10 0.0 3.2 0.00 0.74 0.05 98 1008.2
20260506083516 10 0.0 3.2 0.00 0.74 0.05 98 1008.2
20260506083016 11 0.0 0.0 0.00 0.74 0.05 98 1008.2
20260506082536 11 0.0 0.0 0.00 0.74 0.05 98 1008.0
20260506082016 11 0.0 3.2 0.00 0.74 0.05 98 1008.4
20260506081516 11 135 1.6 4.8 0.00 0.74 0.05 98 1008.5
20260506081016 11 0.0 4.8 0.00 0.74 0.05 98 1008.9
20260506080516 11 135 1.6 4.8 0.00 0.74 0.05 98 1009.1
20260506073516 11 0.0 1.6 0.00 0.74 0.05 98 1009.3
20260506073016 11 135 1.6 3.2 0.00 0.74 0.05 98 1009.1
20260506072516 12 0.0 0.0 0.00 0.74 0.05 98 1009.2
20260506072016 12 135 1.6 4.8 0.00 0.74 0.05 98 1009.1
20260506071516 12 135 1.6 3.2 0.00 0.74 0.05 98 1009.2
20260506071016 12 0.0 0.0 0.00 0.74 0.05 98 1009.2
20260506070516 12 0.0 0.0 0.00 0.74 0.05 98 1009.3
20260506062516 12 0.0 0.0 0.03 0.74 0.05 98 1009.6
20260506062016 12 0.0 1.6 0.03 0.74 0.05 98 1009.7
20260506061536 12 135 1.6 4.8 0.03 0.74 0.05 98 1009.6
20260506061016 12 135 1.6 4.8 0.03 0.74 0.05 98 1009.5
20260506060516 12 0.0 3.2 0.03 0.74 0.05 97 1009.6
20260506051016 13 0.0 0.0 0.03 0.71 0.03 97 1010.5
20260506050516 13 0.0 0.0 0.03 0.71 0.03 97 1010.4
20260506045016 13 135 1.6 4.8 0.00 0.69 0.00 97 1010.2
20260506044516 13 0.0 1.6 0.00 0.69 0.00 96 1010.2
20260506044016 13 0.0 3.2 0.00 0.69 0.00 96 1009.8
20260506043517 13 0.0 3.2 0.00 0.69 0.00 96 1009.8
20260506043036 13 0.0 1.6 0.00 0.69 0.00 96 1009.7
20260506042516 13 270 1.6 4.8 0.00 0.69 0.00 96 1009.7
20260506042016 13 0.0 3.2 0.00 0.69 0.00 96 1009.8
20260506041516 13 180 1.6 4.8 0.00 0.69 0.00 96 1009.7
20260506041016 13 0.0 4.8 0.00 0.69 0.00 95 1009.7
20260506040516 13 180 1.6 4.8 0.00 0.69 0.00 95 1009.8
20260506040016 13 0.0 3.2 0.00 0.69 0.69 95 1009.6
20260506035516 13 0.0 4.8 0.00 0.69 0.69 95 1009.8
20260506035016 13 0.0 4.8 0.00 0.69 0.69 94 1009.7
20260506034536 14 0.0 3.2 0.00 0.69 0.69 94 1009.6
20260506034016 14 0.0 6.4 0.00 0.69 0.69 93 1009.5
20260506033516 14 225 1.6 4.8 0.00 0.69 0.69 93 1009.5
20260506033016 14 180 1.6 6.4 0.00 0.69 0.69 93 1009.5
20260506032516 14 0.0 3.2 0.00 0.69 0.69 92 1009.4
20260506032016 14 180 1.6 8.0 0.00 0.69 0.69 91 1009.3
20260506031516 14 158 1.6 6.4 0.00 0.69 0.69 92 1009.3
20260506031016 14 158 1.6 4.8 0.00 0.69 0.69 91 1009.1
20260506030536 14 158 1.6 3.2 0.00 0.69 0.69 92 1009.2
20260506030016 14 158 1.6 4.8 0.00 0.69 0.69 91 1008.9
20260506025516 14 135 1.6 6.4 0.00 0.69 0.69 91 1009.1
20260506025017 14 0.0 4.8 0.00 0.69 0.69 91 1009.0
20260506024516 14 135 3.2 8.0 0.00 0.69 0.69 91 1009.1
20260506024016 14 158 1.6 4.8 0.00 0.69 0.69 91 1009.1
20260506023516 14 158 1.6 6.4 0.00 0.69 0.69 91 1009.0
20260506023016 14 158 1.6 8.0 0.00 0.69 0.69 91 1009.1
20260506022516 14 0.0 4.8 0.00 0.69 0.69 91 1009.1
20260506022036 15 135 1.6 8.0 0.00 0.69 0.69 90 1009.0
20260506021536 15 135 1.6 3.2 0.00 0.69 0.69 90 1009.1
20260506021016 15 0.0 6.4 0.00 0.69 0.69 88 1008.9
20260506020516 15 0.0 3.2 0.00 0.69 0.69 87 1009.0
20260506020016 15 113 1.6 8.0 0.00 0.69 0.69 87 1009.0
20260506015536 15 23 3.2 14.5 0.00 0.69 0.69 84 1009.0
20260506015016 15 135 1.6 6.4 0.00 0.69 0.69 85 1008.9
20260506014516 15 248 1.6 8.0 0.00 0.69 0.69 86 1008.9
20260506014016 15 203 1.6 3.2 0.00 0.69 0.69 88 1008.9
20260506013516 15 203 1.6 6.4 0.00 0.69 0.69 89 1008.9
20260506013016 14 203 1.6 3.2 0.00 0.69 0.69 89 1008.7
20260506012516 14 158 1.6 12.9 0.00 0.69 0.69 89 1008.7
20260506012016 13 248 1.6 4.8 0.00 0.69 0.69 91 1008.4
20260506011516 13 135 1.6 8.0 0.00 0.69 0.69 92 1008.5
20260506011016 13 180 3.2 11.3 0.00 0.69 0.69 93 1008.4
20260506010516 13 158 1.6 8.0 0.00 0.69 0.69 94 1008.1
20260506010016 13 158 3.2 9.7 0.00 0.69 0.69 94 1008.0
20260506005536 13 158 1.6 8.0 0.00 0.69 0.69 94 1007.9
20260506005016 13 225 1.6 3.2 0.00 0.69 0.69 94 1007.8
20260506004516 13 225 1.6 6.4 0.00 0.69 0.69 94 1007.9
20260506004016 13 225 1.6 6.4 0.00 0.69 0.69 94 1007.8
20260506003516 13 0.0 3.2 0.00 0.69 0.69 94 1007.9
20260506003015 13 0.0 3.2 0.00 0.69 0.69 94 1007.8
20260506002516 13 180 1.6 3.2 0.00 0.69 0.69 93 1007.8
20260506002016 13 180 1.6 8.0 0.00 0.69 0.69 93 1007.7
20260506001536 14 0.0 6.4 0.00 0.69 0.69 94 1007.8
20260506001016 14 0.0 4.8 0.00 0.69 0.69 93 1007.8
20260506000516 14 270 1.6 4.8 0.00 0.69 0.69 93 1007.6
20260506000015 14 158 3.2 11.3 0.00 0.69 0.69 94 1007.5
20260505235515 14 135 1.6 6.4 0.00 0.69 0.69 94 1007.4
20260505235016 14 135 1.6 4.8 0.00 0.69 0.69 94 1007.5
20260505234536 14 0.0 3.2 0.00 0.69 0.69 94 1007.7
20260505234016 15 135 1.6 6.4 0.00 0.69 0.69 93 1007.7
20260505233536 15 0.0 3.2 0.00 0.69 0.69 92 1007.5
20260505233016 15 135 1.6 6.4 0.00 0.69 0.69 92 1007.4
20260505232516 15 0.0 0.0 0.00 0.69 0.69 90 1007.5
20260505232016 15 0.0 1.6 0.00 0.69 0.69 89 1007.6
20260505231515 15 270 1.6 8.0 0.00 0.69 0.69 88 1007.6
20260505231015 15 135 1.6 6.4 0.00 0.69 0.69 85 1007.8
20260505230516 15 158 1.6 6.4 0.00 0.69 0.69 86 1007.8
20260505230015 15 315 1.6 8.0 0.00 0.69 0.69 87 1007.9
20260505225516 15 315 3.2 14.5 0.00 0.69 0.69 85 1007.9
20260505225015 15 203 3.2 8.0 0.00 0.69 0.69 89 1007.7
20260505224516 15 293 3.2 11.3 0.00 0.69 0.69 90 1007.7
20260505224016 15 158 3.2 8.0 0.00 0.69 0.69 91 1007.5
20260505223515 15 158 1.6 4.8 0.00 0.69 0.69 94 1007.4
20260505223016 15 158 1.6 4.8 0.00 0.69 0.69 94 1007.4
20260505222535 16 158 1.6 4.8 0.00 0.69 0.69 93 1007.3
20260505222016 16 158 1.6 4.8 0.00 0.69 0.69 92 1007.2
20260505221515 16 158 1.6 4.8 0.00 0.69 0.69 91 1006.9
20260505221015 16 270 1.6 6.4 0.00 0.69 0.69 90 1006.9
20260505220515 16 270 1.6 8.0 0.00 0.69 0.69 90 1007.1
20260505220015 16 270 3.2 9.7 0.03 0.69 0.69 88 1007.3
20260505215535 16 315 3.2 16.1 0.03 0.69 0.69 90 1007.4
20260505215035 16 23 1.6 4.8 0.03 0.69 0.69 92 1007.3
20260505214516 16 270 1.6 6.4 0.03 0.69 0.69 91 1007.2
20260505214015 16 203 1.6 16.1 0.03 0.69 0.69 91 1006.9
20260505213515 16 180 1.6 20.9 0.03 0.69 0.69 91 1006.9
20260505213015 16 158 1.6 4.8 0.03 0.69 0.69 94 1006.7
20260505212516 16 0.0 1.6 0.05 0.69 0.69 93 1006.7